Regional Weather Roundup
Issued by NWS

Home | Current Version | Previous Version | Text Only | Print | Product List | Glossary Off
Versions: 1 2 3 4 5 6 7 8 9 10 11 12 13 14 15 16 17 18 19 20 21 22 23 24 25 26 27 28 29 30 31 32 33 34 35 36 37 38 39 40 41 42 43 44 45 46 47 48 49 50

000
ASUS45 KABQ 022010
RWRNM
NEW MEXICO REGIONAL WEATHER ROUNDUP
NATIONAL WEATHER SERVICE ALBUQUERQUE NM
100 PM MST FRI DEC 02 2016

NOTE: "FAIR" MEANS FEW OR NO CLOUDS BELOW 12,000 FEET AGL WITH NO
       SIGNIFICANT WEATHER OR OBSTRUCTIONS TO VISION.

      THIS PRODUCT IS RELEASED AS TWO VERSIONS.  ONE VERSION NEAR
      THE TOP OF THE HOUR CONTAINING PRELIMINARY DATA FROM ALBUQUERQUE
      AND OTHER STATIONS.  A FINAL VERSION WITH ADDITIONAL DATA IS
      ISSUED ABOUT 10 MINUTES AFTER THE HOUR.

NMZ501-503-504-510>518-022100-
NORTHWEST PLATEAU/NORTHCENTRAL MOUNTAINS

CITY           SKY/WX    TMP DP  RH WIND       PRES   REMARKS
FARMINGTON     FAIR      40  20  44 E7        29.96F
LOS ALAMOS     FAIR      32  28  86 E5        30.02F WCI  27
SANTA FE       FAIR      40  27  59 N10       30.00F WCI  33
TAOS           FAIR      32  18  55 N10       30.02F WCI  24
ANGEL FIRE     CLOUDY    26  18  71 CALM      30.06F

$$
NMZ402-403-502-505>509-022100-
WESTCENTRAL MOUNTAINS/SOUTHWEST MOUNTAINS

CITY           SKY/WX    TMP DP  RH WIND       PRES   REMARKS
GALLUP         FAIR      40  19  43 N10       29.93F WCI  33
GRANTS         FAIR      41  27  58 SE15G21   29.96S

$$
NMZ407-409-411-412-022100-
SOUTHERN DESERTS

CITY           SKY/WX    TMP DP  RH WIND       PRES   REMARKS
DEMING         FAIR      58  28  32 S7G20     29.90F
LAS CRUCES     PTSUNNY   59  24  26 CALM      29.91F
HOLLOMAN AFB   FAIR      60  24  24 S9        29.93F
T OR C         FAIR      54  19  25 S9        29.91F

$$
NMZ519>523-022100-
CENTRAL VALLEYS/CENTRAL HIGHLANDS

CITY           SKY/WX    TMP DP  RH WIND       PRES   REMARKS
ALBUQUERQUE    PTSUNNY   48  17  29 E21       29.96F
DOUBLE EAGLE   PTSUNNY   46  18  31 SE20      29.97F
MORIARTY ARPT  FAIR      41  14  32 E12G20    30.03F
CLINES CORNERS CLOUDY    32  14  47 E20       30.02F WCI  20
BELEN          FAIR      53  17  24 SE9       29.94F
SOCORRO        PTSUNNY   52  18  26 SE9       29.93F

$$
NMZ524>526-539-540-022100-
SOUTHCENTRAL MOUNTAINS

CITY           SKY/WX    TMP DP  RH WIND       PRES   REMARKS
RUIDOSO        PTSUNNY   39  16  38 SE16      30.01S WCI  30

$$
NMZ527>531-022100-
NORTHEAST HIGHLANDS/NORTHEAST PLAINS

CITY           SKY/WX    TMP DP  RH WIND       PRES   REMARKS
LAS VEGAS      CLOUDY    31  16  54 NE9       30.08F WCI  23
RATON          CLOUDY    34  14  43 SE6       30.10F WCI  29
CLAYTON        CLOUDY    40  18  41 E12       30.13F WCI  33

$$
NMZ532>537-022100-
EASTCENTRAL PLAINS

CITY           SKY/WX    TMP DP  RH WIND       PRES   REMARKS
TUCUMCARI      CLOUDY    44  19  36 NE15      30.08F
CANNON AFB     CLOUDY    42  25  49 E12       30.04F
CLOVIS AIRPORT CLOUDY    45  25  45 E13       30.04F

$$
NMZ028-029-538-022100-
SOUTHEAST PLAINS

CITY           SKY/WX    TMP DP  RH WIND       PRES   REMARKS
ROSWELL        CLOUDY    50  31  48 N8        29.99F
ARTESIA        CLOUDY    48  36  61 N7        30.00F
CARLSBAD       CLOUDY    50  30  46 N12       29.97F
HOBBS          CLOUDY    41  41 100 NE12      30.00F FOG


$$




USA.gov is the U.S. government's official web portal to all federal, state and local government web resources and services.